• En España
  • Lista de países
  • Para 7 días
  • Temperatura del agua
  • Mapa Satelital
  • El tiempo en el mapa
  • Informadores
  • user-avatar
    Iniciar sesión

    Tiempo cada hora Meppel

    Hoy, 4 Diciembre, Domingo

    Tiempo Temperatura Precipitaciones Viento Presión Humedad
    00:00 +1°C° 0 mm 2 mps 770 mmHg 91%
    01:00 -1°C° 0 mm 2 mps 770 mmHg 91%
    02:00 -1°C° 0 mm 2 mps 770 mmHg 91%
    03:00 -1°C° 0 mm 2 mps 770 mmHg 91%
    04:00 -1°C° 0 mm 2 mps 770 mmHg 90%
    05:00 -1°C° 0 mm 2 mps 770 mmHg 89%
    06:00 -1°C° 0 mm 2 mps 770 mmHg 89%
    07:00 -1°C° 0 mm 2 mps 770 mmHg 85%
    08:00 +1°C° 0 mm 2 mps 771 mmHg 82%
    09:00 +1°C° 0 mm 2 mps 771 mmHg 79%
    10:00 +2°C° 0 mm 2 mps 771 mmHg 73%
    11:00 +3°C° 0 mm 2 mps 771 mmHg 68%
    12:00 +4°C° 0 mm 2 mps 771 mmHg 63%
    13:00 +2°C° 0 mm 3 mps 770 mmHg 67%
    14:00 +1°C° 0 mm 3 mps 770 mmHg 71%
    15:00 0°C° 0 mm 3 mps 770 mmHg 75%
    16:00 0°C° 0 mm 3 mps 770 mmHg 74%
    17:00 -1°C° 0 mm 3 mps 770 mmHg 73%
    18:00 -1°C° 0 mm 3 mps 770 mmHg 72%
    19:00 -1°C° 0 mm 3 mps 770 mmHg 68%
    20:00 -2°C° 0 mm 3 mps 770 mmHg 64%
    21:00 -2°C° 0 mm 2 mps 771 mmHg 60%
    22:00 -2°C° 0 mm 2 mps 770 mmHg 57%
    23:00 -2°C° 0 mm 2 mps 770 mmHg 54%

    Mañana, 5 Diciembre, Lunes

    Tiempo Temperatura Precipitaciones Viento Presión Humedad
    00:00 -2°C° 0 mm 2 mps 770 mmHg 51%
    01:00 -2°C° 0 mm 2 mps 770 mmHg 49%
    02:00 -2°C° 0 mm 2 mps 770 mmHg 48%
    03:00 -2°C° 0 mm 2 mps 770 mmHg 46%
    04:00 -2°C° 0 mm 2 mps 770 mmHg 44%
    05:00 -2°C° 0 mm 2 mps 770 mmHg 43%
    06:00 -2°C° 0 mm 2 mps 770 mmHg 42%
    07:00 -1°C° 0 mm 2 mps 770 mmHg 42%
    08:00 -1°C° 0 mm 2 mps 770 mmHg 41%
    09:00 +2°C° 0 mm 1 mps 770 mmHg 41%
    10:00 +3°C° 0 mm 1 mps 770 mmHg 39%
    11:00 +4°C° 0 mm 1 mps 770 mmHg 38%
    12:00 +5°C° 0 mm 1 mps 770 mmHg 37%
    13:00 +3°C° 0 mm 1 mps 770 mmHg 42%
    14:00 +2°C° 0 mm 1 mps 770 mmHg 47%
    15:00 0°C° 0 mm 0 mps 770 mmHg 52%
    16:00 0°C° 0 mm 1 mps 770 mmHg 51%
    17:00 0°C° 0 mm 1 mps 770 mmHg 51%
    18:00 0°C° 0 mm 1 mps 770 mmHg 50%
    19:00 0°C° 0 mm 1 mps 770 mmHg 51%
    20:00 0°C° 0 mm 1 mps 770 mmHg 51%
    21:00 0°C° 0 mm 1 mps 771 mmHg 51%
    22:00 0°C° 0 mm 1 mps 771 mmHg 53%
    23:00 0°C° 0 mm 1 mps 771 mmHg 55%

    Pasado mañana, 6 Diciembre, Martes

    Tiempo Temperatura Precipitaciones Viento Presión Humedad
    00:00 0°C° 0 mm 1 mps 771 mmHg 57%
    01:00 0°C° 0 mm 1 mps 771 mmHg 60%
    02:00 0°C° 0 mm 1 mps 771 mmHg 62%
    03:00 0°C° 0 mm 1 mps 771 mmHg 64%
    04:00 0°C° 0 mm 1 mps 771 mmHg 66%
    05:00 0°C° 0 mm 1 mps 771 mmHg 67%
    06:00 0°C° 0 mm 1 mps 771 mmHg 68%
    07:00 +1°C° 0 mm 1 mps 771 mmHg 67%
    08:00 -1°C° 0 mm 2 mps 772 mmHg 66%
    09:00 +1°C° 0 mm 2 mps 772 mmHg 64%
    10:00 +2°C° 0 mm 2 mps 772 mmHg 64%
    11:00 +3°C° 0 mm 2 mps 772 mmHg 64%
    12:00 +4°C° 0 mm 2 mps 772 mmHg 63%
    13:00 +3°C° 0 mm 2 mps 772 mmHg 69%
    14:00 +2°C° 0 mm 2 mps 772 mmHg 74%
    15:00 +1°C° 0 mm 2 mps 772 mmHg 80%
    16:00 +1°C° 0 mm 2 mps 772 mmHg 80%
    17:00 -1°C° 0 mm 3 mps 772 mmHg 80%
    18:00 -1°C° 0 mm 3 mps 772 mmHg 80%
    19:00 -1°C° 0 mm 3 mps 772 mmHg 80%
    20:00 -1°C° 0 mm 3 mps 772 mmHg 79%
    21:00 -1°C° 0 mm 3 mps 772 mmHg 79%
    22:00 0°C° 0 mm 3 mps 772 mmHg 79%
    23:00 0°C° 0 mm 3 mps 772 mmHg 79%

    7 Diciembre, Miércoles

    Tiempo Temperatura Precipitaciones Viento Presión Humedad
    00:00 0°C° 0 mm 3 mps 772 mmHg 79%
    01:00 0°C° 0 mm 3 mps 772 mmHg 79%
    02:00 0°C° 0 mm 3 mps 772 mmHg 80%
    03:00 +1°C° 0 mm 3 mps 772 mmHg 80%
    04:00 +1°C° 0 mm 3 mps 771 mmHg 83%
    05:00 -1°C° 0 mm 4 mps 771 mmHg 85%
    06:00 -1°C° 0 mm 4 mps 771 mmHg 88%
    07:00 0°C° 0 mm 4 mps 771 mmHg 86%
    08:00 0°C° 0 mm 4 mps 771 mmHg 84%
    09:00 0°C° 0 mm 4 mps 771 mmHg 81%
    10:00 +1°C° 0 mm 4 mps 771 mmHg 78%
    11:00 +2°C° 0 mm 5 mps 771 mmHg 75%
    12:00 +5°C° 0 mm 5 mps 771 mmHg 71%
    13:00 +3°C° 0 mm 5 mps 770 mmHg 74%
    14:00 +3°C° 0 mm 4 mps 770 mmHg 78%
    15:00 +3°C° 0 mm 4 mps 770 mmHg 81%
    16:00 +2°C° 0 mm 5 mps 770 mmHg 81%
    17:00 +2°C° 0 mm 5 mps 770 mmHg 81%
    18:00 +2°C° 0 mm 5 mps 770 mmHg 81%
    19:00 +2°C° 0 mm 5 mps 770 mmHg 81%
    20:00 +2°C° 0 mm 5 mps 770 mmHg 81%
    21:00 +3°C° 0 mm 5 mps 770 mmHg 81%
    22:00 +3°C° 0 mm 6 mps 770 mmHg 81%
    23:00 +3°C° 0 mm 6 mps 769 mmHg 80%

    8 Diciembre, Jueves

    Tiempo Temperatura Precipitaciones Viento Presión Humedad
    00:00 +3°C° 0 mm 6 mps 769 mmHg 79%
    01:00 +3°C° 0 mm 6 mps 769 mmHg 79%
    02:00 +3°C° 0 mm 6 mps 769 mmHg 78%
    03:00 +3°C° 0 mm 6 mps 768 mmHg 77%
    04:00 +4°C° 0 mm 6 mps 768 mmHg 76%
    05:00 +4°C° 0 mm 7 mps 767 mmHg 75%
    06:00 +4°C° 0 mm 7 mps 767 mmHg 74%
    07:00 +4°C° 0,5 mm 7 mps 767 mmHg 77%
    08:00 +4°C° 0,5 mm 7 mps 767 mmHg 80%
    09:00 +4°C° 0,5 mm 7 mps 767 mmHg 83%
    10:00 +5°C° 0,3 mm 7 mps 767 mmHg 87%
    11:00 +6°C° 0,3 mm 7 mps 767 mmHg 90%
    12:00 +6°C° 0,3 mm 7 mps 767 mmHg 93%
    13:00 +8°C° 0 mm 7 mps 767 mmHg 93%
    14:00 +8°C° 0 mm 7 mps 767 mmHg 94%
    15:00 +8°C° 0 mm 6 mps 767 mmHg 94%
    16:00 +8°C° 0 mm 6 mps 767 mmHg 94%
    17:00 +8°C° 0 mm 6 mps 767 mmHg 95%
    18:00 +8°C° 0 mm 6 mps 767 mmHg 95%
    19:00 +8°C° 0 mm 7 mps 767 mmHg 94%
    20:00 +8°C° 0 mm 7 mps 767 mmHg 94%
    21:00 +8°C° 0 mm 7 mps 768 mmHg 94%
    22:00 +8°C° 0 mm 7 mps 768 mmHg 94%
    23:00 +6°C° 0 mm 7 mps 767 mmHg 94%

    9 Diciembre, Viernes

    Tiempo Temperatura Precipitaciones Viento Presión Humedad
    00:00 +6°C° 0 mm 7 mps 767 mmHg 95%
    01:00 +6°C° 0 mm 7 mps 767 mmHg 95%
    02:00 +7°C° 0 mm 6 mps 768 mmHg 95%
    03:00 +7°C° 0 mm 6 mps 768 mmHg 96%
    04:00 +7°C° 0 mm 5 mps 768 mmHg 96%
    05:00 +7°C° 0 mm 5 mps 768 mmHg 97%
    06:00 +7°C° 0 mm 5 mps 768 mmHg 97%
    07:00 +7°C° 0,1 mm 5 mps 768 mmHg 97%
    08:00 +8°C° 0,1 mm 5 mps 768 mmHg 97%
    09:00 +9°C° 0,1 mm 5 mps 768 mmHg 97%
    10:00 +9°C° 0,1 mm 5 mps 768 mmHg 97%
    11:00 +10°C° 0,1 mm 6 mps 768 mmHg 96%
    12:00 +10°C° 0,1 mm 6 mps 768 mmHg 95%
    13:00 +10°C° 0 mm 6 mps 767 mmHg 94%
    14:00 +10°C° 0 mm 5 mps 767 mmHg 94%
    15:00 +10°C° 0 mm 5 mps 767 mmHg 94%
    16:00 +9°C° 0 mm 5 mps 767 mmHg 92%
    17:00 +9°C° 0 mm 6 mps 766 mmHg 90%
    18:00 +8°C° 0 mm 6 mps 766 mmHg 88%
    19:00 +8°C° 0 mm 6 mps 766 mmHg 88%
    20:00 +8°C° 0 mm 6 mps 766 mmHg 87%
    21:00 +7°C° 0 mm 5 mps 766 mmHg 86%
    22:00 +7°C° 0 mm 5 mps 766 mmHg 87%
    23:00 +7°C° 0 mm 5 mps 765 mmHg 88%
    Mostrar más